PAL210 RPLI-RPLL

Flight info

Callsign PAL210
Flight time 0h 46m
Altitude 31000
Route RPLI/01 MELAN2P MELAN M646 SANRO W4 NABAL NABAL5P RPLL/24
Aircraft A20N/M-SDE3/L

Departure

Time 2026-05-04 06:18
Airport Laoag International Airport (RPLI)

Arrival

Time 2026-05-04 07:04
Airport Ninoy Aquino International Airport (RPLL)
Time Latitude Longitude Altitude Speed Heading
2026-05-04 06:05 18.18071 120.53321 27 ft 0 kts 65°
2026-05-04 06:13 18.18109 120.53223 25 ft 7 kts 275°
2026-05-04 06:14 18.17639 120.53114 22 ft 25 kts 185°
2026-05-04 06:14 18.17445 120.53095 20 ft 28 kts 185°
2026-05-04 06:15 18.17251 120.53075 20 ft 27 kts 186°
2026-05-04 06:15 18.17072 120.53057 21 ft 25 kts 185°
2026-05-04 06:15 18.16904 120.53040 22 ft 23 kts 185°
2026-05-04 06:15 18.16747 120.53024 23 ft 21 kts 185°
2026-05-04 06:16 18.16602 120.53010 25 ft 20 kts 185°
2026-05-04 06:16 18.16483 120.52998 25 ft 9 kts 178°
2026-05-04 06:16 18.16412 120.53010 25 ft 10 kts 181°
2026-05-04 06:16 18.16406 120.52982 26 ft 9 kts
2026-05-04 06:17 18.16475 120.52996 25 ft 12 kts
2026-05-04 06:17 18.16722 120.53021 24 ft 70 kts
2026-05-04 06:17 18.17434 120.53092 20 ft 133 kts
2026-05-04 06:17 18.18507 120.53199 152 ft 169 kts
2026-05-04 06:18 18.19674 120.53312 694 ft 172 kts
2026-05-04 06:18 18.20864 120.53400 1319 ft 175 kts 359°
2026-05-04 06:18 18.21984 120.52916 1892 ft 183 kts 314°
2026-05-04 06:20 18.17348 120.42241 5132 ft 285 kts 240°
2026-05-04 06:20 18.16235 120.40519 5921 ft 290 kts 223°
2026-05-04 06:21 18.08388 120.39028 9069 ft 304 kts 182°
2026-05-04 06:21 18.06282 120.38917 9851 ft 308 kts 183°
2026-05-04 06:22 18.04138 120.38791 10571 ft 315 kts 184°
2026-05-04 06:22 18.01908 120.38649 10990 ft 332 kts 184°
2026-05-04 06:25 17.68401 120.37309 21190 ft 337 kts 179°
2026-05-04 06:25 17.66089 120.37264 22112 ft 328 kts 179°
2026-05-04 06:26 17.63846 120.37227 22752 ft 328 kts 178°
2026-05-04 06:26 17.61564 120.37193 23280 ft 331 kts 178°
2026-05-04 06:26 17.59266 120.37160 23797 ft 333 kts 178°
2026-05-04 06:26 17.56940 120.37126 24314 ft 336 kts 178°
2026-05-04 06:27 17.47534 120.36987 26269 ft 345 kts 178°
2026-05-04 06:28 17.45122 120.36951 26736 ft 347 kts 177°
2026-05-04 06:28 17.42727 120.36915 27186 ft 349 kts 177°
2026-05-04 06:28 17.40295 120.36877 27630 ft 351 kts 177°
2026-05-04 06:28 17.37845 120.36841 28068 ft 353 kts 177°
2026-05-04 06:29 17.35382 120.36803 28496 ft 355 kts 177°
2026-05-04 06:29 17.32937 120.36765 28911 ft 357 kts 177°
2026-05-04 06:29 17.30449 120.36728 29321 ft 359 kts 177°
2026-05-04 06:29 17.27937 120.36691 29725 ft 361 kts 177°
2026-05-04 06:30 17.25452 120.36654 30114 ft 363 kts 177°
2026-05-04 06:30 17.22933 120.36616 30499 ft 365 kts 177°
2026-05-04 06:30 17.20388 120.36578 30847 ft 367 kts 177°
2026-05-04 06:30 17.17818 120.36541 30920 ft 378 kts 177°
2026-05-04 06:31 17.15151 120.36502 30931 ft 390 kts 177°
2026-05-04 06:31 17.12410 120.36460 30936 ft 402 kts 178°
2026-05-04 06:31 17.09577 120.36416 30938 ft 414 kts 178°
2026-05-04 06:31 17.06671 120.36369 30938 ft 425 kts 178°
2026-05-04 06:33 16.82184 120.35965 30934 ft 445 kts 178°
2026-05-04 06:34 16.76018 120.35873 30933 ft 444 kts 176°
2026-05-04 06:34 16.69880 120.36222 30932 ft 442 kts 171°
2026-05-04 06:36 16.45626 120.39433 30934 ft 441 kts 170°
2026-05-04 06:37 16.39560 120.40236 30934 ft 441 kts 170°
2026-05-04 06:37 16.33501 120.41036 30934 ft 441 kts 170°
2026-05-04 06:38 16.27409 120.41840 30934 ft 441 kts 170°
2026-05-04 06:40 16.03239 120.45022 30924 ft 416 kts 169°
2026-05-04 06:40 16.00444 120.45384 30926 ft 401 kts 169°
2026-05-04 06:40 15.97707 120.45744 30763 ft 398 kts 169°
2026-05-04 06:41 15.94994 120.46102 30515 ft 395 kts 169°
2026-05-04 06:41 15.92258 120.46463 30263 ft 394 kts 169°
2026-05-04 06:41 15.89570 120.46818 30014 ft 393 kts 169°
2026-05-04 06:41 15.86873 120.47170 29764 ft 392 kts 169°
2026-05-04 06:42 15.84186 120.47521 29515 ft 391 kts 169°
2026-05-04 06:42 15.81479 120.47875 29262 ft 390 kts 169°
2026-05-04 06:42 15.78803 120.48225 29012 ft 389 kts 169°
2026-05-04 06:44 15.60218 120.50653 27264 ft 383 kts 169°
2026-05-04 06:44 15.57592 120.50993 27015 ft 382 kts 169°
2026-05-04 06:44 15.54942 120.51337 26754 ft 382 kts 169°
2026-05-04 06:45 15.52344 120.51675 26406 ft 381 kts 169°
2026-05-04 06:45 15.49718 120.52114 25911 ft 379 kts 164°
2026-05-04 06:45 15.47201 120.52805 25482 ft 374 kts 159°
2026-05-04 06:45 15.44784 120.53742 25071 ft 369 kts 153°
2026-05-04 06:46 15.42506 120.54890 24650 ft 366 kts 149°
2026-05-04 06:46 15.40282 120.56117 24238 ft 364 kts 148°
2026-05-04 06:46 15.38071 120.57351 23840 ft 363 kts 148°
2026-05-04 06:46 15.35863 120.58580 23439 ft 361 kts 148°
2026-05-04 06:48 15.20610 120.67008 20407 ft 351 kts 149°
2026-05-04 06:48 15.18455 120.68196 19980 ft 350 kts 149°
2026-05-04 06:49 15.16332 120.69366 19559 ft 348 kts 149°
2026-05-04 06:50 15.01642 120.77447 16652 ft 338 kts 150°
2026-05-04 06:51 14.99583 120.78578 16246 ft 336 kts 150°
2026-05-04 06:51 14.97518 120.79707 15839 ft 335 kts 153°
2026-05-04 06:51 14.95342 120.80483 15415 ft 336 kts 169°
2026-05-04 06:51 14.92999 120.80585 15034 ft 333 kts 188°
2026-05-04 06:52 14.90781 120.80015 14954 ft 331 kts 200°
2026-05-04 06:52 14.88642 120.79178 14944 ft 332 kts 202°
2026-05-04 06:52 14.86480 120.78294 14934 ft 331 kts 202°
2026-05-04 06:52 14.84385 120.77447 14752 ft 318 kts 202°
2026-05-04 06:53 14.82378 120.76647 14491 ft 309 kts 202°
2026-05-04 06:53 14.80386 120.75861 14224 ft 304 kts 202°
2026-05-04 06:53 14.78418 120.75088 13883 ft 302 kts 202°
2026-05-04 06:53 14.76460 120.74322 13530 ft 300 kts 202°
2026-05-04 06:54 14.74547 120.73576 13074 ft 296 kts 202°
2026-05-04 06:54 14.72624 120.72826 12486 ft 294 kts 202°
2026-05-04 06:54 14.70734 120.72089 11939 ft 292 kts 202°
2026-05-04 06:54 14.68845 120.71352 11393 ft 289 kts 202°
2026-05-04 06:55 14.66972 120.70619 10836 ft 288 kts 202°
2026-05-04 06:55 14.65132 120.69901 10289 ft 286 kts 201°
2026-05-04 06:55 14.63283 120.69182 9742 ft 284 kts 200°
2026-05-04 06:55 14.61359 120.68829 9137 ft 282 kts 171°
2026-05-04 06:56 14.59557 120.69476 8621 ft 277 kts 148°
2026-05-04 06:57 14.49009 120.75957 6222 ft 229 kts 147°
2026-05-04 06:58 14.47642 120.76759 5850 ft 225 kts 147°
2026-05-04 06:58 14.46279 120.77559 5537 ft 221 kts 147°
2026-05-04 06:58 14.44961 120.78331 5188 ft 219 kts 147°
2026-05-04 06:58 14.43651 120.79099 4925 ft 216 kts 148°
2026-05-04 06:59 14.42349 120.79862 4652 ft 213 kts 148°
2026-05-04 06:59 14.41129 120.80675 4247 ft 210 kts 131°
2026-05-04 06:59 14.40443 120.81963 3792 ft 205 kts 97°
2026-05-04 06:59 14.40565 120.83379 3380 ft 202 kts 66°
2026-05-04 07:01 14.44812 120.91022 1990 ft 140 kts 62°
2026-05-04 07:01 14.45295 120.91891 1811 ft 139 kts 62°
2026-05-04 07:02 14.45775 120.92755 1626 ft 139 kts 62°
2026-05-04 07:02 14.46256 120.93621 1481 ft 139 kts 62°
2026-05-04 07:02 14.46737 120.94483 1311 ft 138 kts 62°
2026-05-04 07:02 14.47216 120.95344 1134 ft 138 kts 62°
2026-05-04 07:03 14.47695 120.96202 954 ft 138 kts 62°
2026-05-04 07:03 14.48171 120.97059 769 ft 137 kts 62°
2026-05-04 07:03 14.48629 120.97923 578 ft 138 kts 62°
2026-05-04 07:03 14.49108 120.98790 413 ft 139 kts 62°
2026-05-04 07:04 14.49582 120.99645 205 ft 135 kts 62°
2026-05-04 07:04 14.50038 121.00472 85 ft 126 kts 62°
2026-05-04 07:04 14.50401 121.01124 84 ft 79 kts 60°
2026-05-04 07:04 14.50592 121.01466 84 ft 37 kts 60°
2026-05-04 07:05 14.50728 121.01678 84 ft 33 kts 44°
2026-05-04 07:05 14.50825 121.01764 84 ft 4 kts 37°
2026-05-04 07:05 14.50854 121.01784 84 ft 5 kts 19°
2026-05-04 07:05 14.50891 121.01773 84 ft 6 kts 307°
2026-05-04 07:06 14.50867 121.01676 84 ft 8 kts 241°
2026-05-04 07:06 14.50838 121.01620 84 ft 9 kts 239°
2026-05-04 07:06 14.50803 121.01561 84 ft 10 kts 239°
2026-05-04 07:07 14.50766 121.01494 84 ft 11 kts 240°
2026-05-04 07:08 14.50827 121.01251 84 ft 0 kts 330°